Temp
-9 -9 -9 -9 -9 -9 -9 -9 -9 -9 -9 -10 -10 -10 -10 -10 -10 -10 -10 -10 -9 -9 -11 -10 -10 -10 -10 -10 -10 -10 -10 -11 -11 -11 -11 -11 -11 -11 -11 -11 -12 -11 -13 -11 -11 -10 -9 -7 -7 -8 -7 -7 -7 -7
-9 -9 -9 -9 -9 -9 -10 -10 -10 -10 -10 -10 -10 -10 -10 -10 -10 -10 -10 -10 -10 -9 -10 -11 -11 -10 -10 -11 -10 -11 -10 -11 -11 -11 -12 -11 -12 -12 -12 -12 -13 -12 -13 -10 -12 -10 -8 -8 -8 -8 -8 -7 -7 -7
-9 -9 -9 -10 -10 -10 -10 -10 -10 -10 -10 -10 -10 -10 -10 -11 -10 -10 -10 -10 -10 -10 -10 -11 -11 -11 -11 -11 -11 -11 -12 -12 -12 -12 -12 -12 -13 -13 -12 -13 -13 -13 -14 -13 -12 -8 -9 -10 -8 -9 -8 -8 -7 -7
-9 -9 -9 -10 -10 -10 -10 -10 -10 -11 -10 -11 -11 -11 -11 -11 -11 -11 -11 -11 -10 -10 -10 -10 -11 -12 -12 -12 -13 -13 -13 -13 -13 -14 -14 -14 -14 -14 -14 -13 -14 -14 -15 -14 -10 -10 -10 -10 -9 -9 -8 -8 -8 -8
-9 -9 -9 -10 -10 -10 -10 -11 -11 -11 -11 -11 -11 -11 -11 -11 -12 -11 -11 -11 -11 -10 -10 -11 -12 -13 -13 -14 -14 -14 -15 -15 -14 -14 -15 -14 -15 -14 -14 -14 -14 -15 -14 -13 -12 -11 -10 -9 -10 -10 -9 -8 -8 -8
-10 -10 -10 -10 -11 -11 -11 -11 -11 -11 -11 -12 -12 -12 -12 -12 -12 -11 -11 -12 -12 -11 -12 -14 -15 -16 -16 -16 -16 -16 -15 -15 -14 -14 -15 -15 -15 -16 -14 -14 -15 -13 -12 -12 -11 -10 -10 -10 -10 -10 -10 -9 -9 -8
-10 -10 -10 -11 -11 -11 -12 -12 -12 -12 -12 -12 -12 -12 -12 -12 -12 -12 -12 -12 -12 -14 -15 -15 -16 -16 -16 -15 -15 -15 -15 -15 -15 -15 -15 -15 -15 -15 -13 -13 -12 -12 -12 -12 -11 -10 -10 -9 -9 -9 -9 -8 -9 -9
-10 -10 -11 -11 -12 -12 -12 -12 -12 -12 -13 -12 -12 -13 -13 -13 -13 -12 -12 -13 -14 -15 -15 -15 -15 -15 -15 -15 -15 -15 -15 -14 -14 -14 -15 -15 -14 -13 -11 -12 -12 -12 -12 -12 -11 -11 -10 -9 -7 -10 -8 -5 -10 -9
-11 -11 -12 -12 -12 -12 -12 -13 -13 -13 -13 -13 -13 -13 -13 -13 -13 -13 -13 -14 -14 -14 -14 -14 -14 -15 -15 -15 -14 -14 -14 -15 -14 -13 -12 -13 -12 -11 -10 -11 -12 -12 -11 -11 -11 -11 -10 -9 -7 -8 -9 -10 -10 -10
-12 -12 -13 -13 -13 -13 -13 -13 -13 -13 -13 -14 -13 -13 -13 -13 -13 -13 -14 -14 -14 -15 -14 -13 -14 -15 -15 -14 -14 -14 -14 -13 -12 -12 -12 -12 -11 -12 -12 -10 -11 -11 -11 -11 -10 -10 -11 -10 -9 -11 -11 -11 -10 -9
-13 -13 -14 -14 -14 -14 -14 -14 -14 -14 -14 -14 -14 -14 -14 -13 -13 -13 -14 -14 -14 -14 -14 -13 -13 -14 -14 -14 -14 -13 -13 -13 -12 -12 -13 -12 -11 -11 -11 -11 -11 -11 -11 -11 -11 -10 -10 -11 -13 -13 -10 -9 -9 -9
-14 -14 -14 -14 -14 -14 -15 -15 -14 -15 -15 -14 -14 -14 -14 -14 -13 -14 -14 -14 -14 -14 -14 -13 -13 -14 -14 -14 -13 -13 -13 -12 -12 -13 -12 -12 -12 -12 -11 -12 -13 -13 -12 -12 -13 -12 -12 -11 -12 -11 -11 -10 -9 -9
-15 -15 -15 -16 -15 -15 -15 -15 -15 -16 -15 -14 -14 -14 -14 -14 -14 -14 -14 -14 -14 -14 -14 -13 -13 -13 -13 -14 -13 -13 -12 -13 -13 -13 -12 -13 -13 -13 -12 -12 -13 -13 -12 -12 -12 -12 -12 -12 -11 -11 -11 -10 -10 -10
-16 -16 -16 -16 -16 -16 -16 -15 -16 -16 -16 -15 -14 -15 -14 -14 -14 -14 -14 -14 -14 -14 -14 -13 -13 -13 -13 -13 -13 -13 -13 -13 -13 -12 -13 -13 -13 -12 -12 -12 -13 -12 -12 -12 -12 -12 -12 -12 -11 -11 -11 -11 -11 -11
-17 -17 -17 -16 -16 -16 -16 -16 -17 -16 -15 -15 -15 -15 -15 -15 -15 -15 -15 -15 -14 -14 -14 -13 -12 -13 -14 -13 -13 -14 -13 -13 -13 -12 -12 -13 -12 -12 -12 -12 -12 -13 -13 -12 -12 -12 -12 -11 -11 -11 -11 -11 -11 -11
-16 -17 -17 -17 -17 -17 -17 -17 -17 -15 -15 -15 -15 -15 -15 -15 -15 -15 -15 -15 -15 -14 -15 -14 -13 -13 -14 -13 -13 -13 -13 -13 -13 -13 -12 -12 -11 -12 -12 -12 -12 -12 -12 -12 -12 -11 -11 -11 -11 -11 -11 -11 -11 -11
-17 -16 -17 -17 -17 -17 -16 -16 -16 -16 -15 -15 -15 -15 -15 -15 -15 -15 -15 -15 -15 -14 -14 -14 -14 -14 -14 -13 -13 -13 -13 -13 -13 -13 -12 -12 -13 -13 -13 -13 -13 -12 -12 -12 -12 -12 -12 -12 -12 -12 -11 -11 -11 -11
-17 -17 -17 -17 -17 -16 -16 -16 -16 -16 -16 -15 -15 -15 -15 -15 -16 -15 -15 -15 -15 -14 -14 -14 -14 -14 -14 -13 -12 -13 -13 -13 -13 -13 -13 -13 -14 -13 -13 -13 -13 -13 -12 -12 -11 -12 -12 -12 -11 -11 -11 -11 -12 -11
-17 -17 -17 -17 -16 -16 -16 -16 -16 -16 -16 -15 -15 -15 -15 -16 -16 -16 -16 -15 -15 -15 -15 -15 -14 -14 -14 -14 -13 -13 -13 -13 -13 -13 -12 -13 -13 -13 -13 -12 -12 -11 -11 -11 -11 -12 -12 -11 -11 -11 -12 -12 -11 -12
-17 -17 -17 -17 -17 -17 -17 -17 -16 -16 -16 -16 -16 -16 -16 -16 -16 -16 -16 -15 -15 -15 -15 -15 -14 -14 -14 -14 -14 -13 -13 -13 -13 -13 -13 -13 -13 -13 -13 -12 -12 -12 -11 -11 -11 -11 -11 -11 -11 -11 -11 -11 -11 -11
-17 -17 -17 -18 -17 -17 -17 -17 -16 -16 -16 -16 -16 -16 -16 -16 -16 -16 -16 -15 -15 -15 -15 -15 -15 -14 -14 -13 -13 -14 -14 -14 -13 -13 -13 -13 -13 -12 -12 -12 -12 -13 -12 -11 -12 -12 -11 -11 -11 -12 -12 -12 -12 -11
-17 -17 -17 -18 -17 -18 -18 -17 -16 -16 -16 -16 -16 -16 -16 -16 -16 -16 -15 -15 -15 -15 -15 -15 -15 -14 -14 -14 -14 -13 -13 -13 -13 -13 -13 -13 -12 -12 -12 -12 -12 -12 -12 -12 -12 -12 -12 -11 -11 -11 -11 -12 -12 -12
-17 -17 -17 -18 -18 -18 -17 -17 -16 -17 -17 -17 -16 -16 -16 -16 -16 -16 -15 -15 -15 -15 -15 -15 -14 -14 -14 -14 -14 -14 -14 -14 -14 -13 -13 -13 -13 -13 -12 -12 -12 -12 -12 -12 -12 -12 -11 -11 -11 -12 -12 -12 -12 -12
-17 -17 -17 -18 -18 -17 -17 -17 -17 -17 -17 -17 -16 -16 -16 -16 -16 -16 -15 -15 -15 -15 -15 -15 -14 -14 -14 -14 -14 -14 -14 -14 -13 -13 -13 -13 -13 -13 -12 -12 -12 -12 -12 -12 -12 -12 -12 -12 -12 -12 -12 -12 -12 -13
-18 -18 -17 -18 -17 -17 -17 -17 -17 -17 -17 -17 -17 -16 -17 -16 -16 -16 -16 -16 -15 -15 -15 -14 -14 -14 -14 -14 -14 -14 -13 -13 -14 -14 -13 -13 -13 -13 -13 -13 -12 -12 -12 -12 -12 -12 -13 -13 -13 -13 -12 -12 -12 -12
-18 -18 -18 -17 -17 -17 -17 -17 -17 -17 -17 -17 -17 -17 -17 -16 -16 -16 -16 -15 -15 -15 -15 -14 -14 -14 -14 -14 -14 -14 -14 -14 -13 -13 -13 -13 -13 -13 -12 -12 -13 -12 -12 -12 -12 -13 -13 -12 -12 -12 -12 -12 -12 -12
-18 -18 -17 -17 -17 -17 -17 -17 -17 -17 -17 -17 -17 -17 -17 -16 -16 -16 -16 -15 -15 -15 -15 -14 -14 -14 -14 -14 -14 -14 -14 -14 -13 -13 -13 -13 -13 -13 -12 -12 -12 -12 -12 -12 -12 -13 -13 -13 -13 -13 -13 -13 -13 -13
-18 -18 -17 -17 -17 -17 -18 -18 -17 -18 -17 -17 -17 -17 -17 -16 -16 -16 -15 -15 -15 -15 -15 -15 -14 -14 -14 -14 -14 -14 -13 -13 -13 -13 -13 -13 -13 -13 -13 -13 -13 -12 -12 -12 -13 -13 -13 -13 -13 -13 -13 -13 -13 -13
-17 -17 -17 -17 -17 -18 -18 -18 -18 -18 -17 -16 -17 -17 -16 -16 -16 -16 -15 -15 -15 -15 -14 -14 -14 -14 -14 -14 -13 -14 -13 -13 -13 -13 -13 -13 -13 -13 -13 -13 -13 -12 -12 -13 -13 -13 -13 -14 -14 -14 -14 -13 -14 -14
-17 -17 -17 -17 -18 -18 -18 -18 -18 -18 -17 -17 -16 -16 -17 -16 -16 -16 -15 -15 -15 -15 -15 -14 -14 -14 -14 -14 -14 -14 -14 -13 -13 -13 -13 -13 -13 -13 -13 -13 -13 -13 -13 -13 -14 -14 -14 -14 -14 -14 -14 -14 -14 -14
-17 -18 -18 -18 -18 -18 -18 -18 -18 -18 -17 -17 -16 -16 -16 -16 -16 -16 -15 -15 -15 -15 -14 -14 -14 -14 -14 -14 -14 -14 -13 -13 -13 -13 -13 -13 -14 -14 -14 -13 -13 -13 -13 -14 -14 -14 -14 -14 -14 -14 -14 -14 -15 -15
-17 -17 -17 -18 -18 -18 -18 -18 -18 -18 -17 -17 -17 -17 -16 -16 -16 -15 -15 -15 -14 -14 -14 -14 -14 -14 -14 -14 -14 -13 -13 -13 -13 -13 -13 -13 -14 -14 -14 -14 -14 -14 -14 -14 -14 -14 -14 -14 -14 -14 -15 -15 -15 -15
-17 -17 -17 -17 -17 -17 -17 -17 -18 -18 -17 -17 -16 -16 -16 -16 -15 -15 -15 -14 -14 -14 -14 -14 -14 -14 -14 -13 -13 -14 -14 -14 -14 -13 -13 -13 -14 -14 -14 -14 -14 -14 -14 -14 -14 -14 -14 -14 -14 -15 -15 -15 -15 -15
Height
5882 5879 5875 5871 5867 5862 5859 5854 5850 5846 5842 5836 5831 5826 5820 5816 5813 5809 5803 5799 5797 5794 5793 5785 5780 5776 5774 5771 5768 5767 5765 5765 5763 5760 5759 5760 5759 5762 5764 5768 5771 5774 5778 5784 5793 5804 5810 5831 5842 5844 5848 5851 5856 5861
5874 5870 5866 5863 5859 5855 5850 5845 5841 5837 5832 5828 5822 5817 5813 5808 5803 5798 5793 5787 5783 5780 5780 5773 5767 5762 5757 5756 5752 5749 5749 5748 5746 5744 5743 5745 5746 5748 5753 5754 5760 5764 5764 5769 5775 5786 5803 5821 5829 5827 5838 5844 5849 5853
5864 5861 5857 5853 5849 5845 5841 5836 5832 5828 5823 5819 5814 5808 5802 5797 5791 5787 5782 5776 5771 5766 5763 5756 5753 5746 5741 5737 5734 5733 5733 5730 5729 5729 5731 5731 5731 5735 5737 5740 5746 5749 5754 5758 5764 5779 5788 5799 5816 5823 5829 5837 5840 5846
5856 5851 5847 5844 5839 5834 5830 5826 5822 5817 5813 5809 5805 5798 5793 5787 5782 5776 5771 5763 5757 5751 5746 5739 5734 5728 5720 5716 5713 5714 5716 5713 5716 5716 5716 5717 5720 5722 5724 5728 5730 5734 5739 5748 5758 5769 5780 5796 5807 5813 5821 5827 5830 5837
5845 5841 5836 5832 5828 5824 5820 5816 5811 5807 5803 5799 5795 5789 5785 5779 5774 5767 5761 5753 5744 5738 5731 5722 5710 5702 5698 5697 5697 5698 5702 5702 5702 5702 5707 5710 5710 5710 5711 5713 5716 5719 5725 5736 5748 5762 5772 5782 5793 5803 5808 5813 5817 5827
5833 5829 5825 5820 5817 5813 5811 5807 5802 5797 5793 5789 5785 5780 5776 5771 5764 5758 5752 5745 5733 5722 5713 5705 5696 5691 5688 5690 5692 5692 5694 5694 5694 5698 5697 5699 5701 5700 5700 5703 5706 5709 5720 5730 5741 5751 5757 5768 5779 5784 5793 5800 5807 5816
5820 5816 5812 5809 5805 5802 5799 5795 5792 5788 5785 5783 5777 5772 5767 5763 5756 5750 5743 5733 5722 5713 5706 5700 5693 5690 5688 5688 5690 5691 5692 5692 5691 5692 5692 5692 5695 5691 5695 5697 5701 5715 5722 5726 5735 5742 5750 5752 5760 5767 5779 5783 5791 5803
5805 5802 5798 5795 5793 5790 5788 5785 5782 5778 5776 5773 5769 5764 5760 5754 5748 5743 5735 5726 5719 5714 5707 5702 5698 5694 5691 5690 5690 5691 5690 5690 5691 5689 5689 5690 5691 5692 5695 5704 5710 5709 5718 5728 5732 5735 5742 5749 5731 5750 5752 5735 5771 5785
5790 5787 5785 5782 5781 5778 5777 5774 5772 5769 5767 5765 5760 5757 5754 5747 5742 5737 5730 5723 5718 5714 5709 5704 5700 5698 5695 5694 5693 5691 5689 5686 5685 5684 5686 5690 5692 5692 5698 5707 5710 5714 5715 5720 5727 5733 5738 5741 5744 5755 5761 5760 5776 5788
5775 5773 5770 5769 5768 5767 5765 5763 5760 5759 5758 5754 5751 5748 5747 5741 5736 5732 5726 5722 5718 5714 5709 5706 5703 5699 5697 5696 5695 5691 5688 5687 5686 5688 5692 5689 5694 5698 5703 5704 5709 5710 5718 5723 5724 5732 5728 5716 5723 5721 5732 5765 5775 5785
5760 5759 5757 5756 5756 5755 5753 5752 5750 5748 5748 5746 5744 5740 5737 5734 5730 5727 5722 5719 5717 5715 5711 5707 5705 5702 5699 5698 5697 5695 5693 5694 5695 5696 5697 5701 5700 5703 5705 5710 5714 5717 5727 5715 5716 5729 5727 5744 5748 5757 5761 5766 5772 5777
5746 5745 5744 5743 5743 5742 5741 5741 5740 5738 5739 5738 5736 5734 5730 5727 5725 5722 5717 5716 5714 5713 5709 5706 5705 5702 5700 5700 5699 5697 5697 5699 5697 5699 5701 5704 5706 5711 5710 5709 5713 5721 5725 5722 5730 5732 5741 5751 5755 5762 5764 5766 5767 5769
5733 5731 5730 5730 5730 5730 5730 5731 5729 5729 5730 5730 5730 5727 5723 5722 5719 5717 5715 5714 5711 5710 5708 5705 5705 5703 5704 5703 5702 5703 5702 5705 5705 5703 5705 5707 5710 5713 5715 5721 5725 5728 5733 5735 5737 5737 5739 5746 5752 5754 5757 5760 5764 5767
5719 5718 5717 5717 5718 5718 5719 5720 5718 5719 5721 5722 5721 5719 5717 5716 5714 5713 5712 5711 5709 5708 5707 5704 5705 5705 5704 5703 5704 5704 5707 5709 5709 5712 5710 5712 5714 5718 5722 5724 5726 5728 5732 5735 5739 5741 5742 5742 5745 5750 5753 5756 5758 5759
5707 5706 5706 5705 5705 5706 5708 5708 5709 5711 5713 5714 5713 5712 5711 5711 5709 5708 5707 5708 5707 5707 5707 5706 5705 5704 5704 5706 5707 5707 5708 5709 5710 5710 5713 5713 5713 5715 5721 5723 5724 5727 5730 5733 5737 5740 5742 5741 5742 5745 5746 5748 5748 5749
5697 5697 5696 5695 5695 5696 5696 5697 5701 5704 5706 5706 5705 5705 5705 5705 5704 5704 5703 5704 5705 5705 5706 5705 5704 5704 5705 5707 5708 5708 5710 5710 5713 5713 5713 5714 5714 5718 5721 5722 5724 5726 5728 5730 5734 5736 5737 5737 5738 5739 5741 5741 5742 5742
5687 5687 5686 5685 5685 5686 5686 5690 5693 5695 5698 5698 5698 5698 5698 5699 5699 5698 5698 5701 5702 5703 5704 5705 5705 5707 5708 5707 5708 5708 5708 5704 5708 5715 5716 5715 5717 5719 5721 5722 5724 5724 5726 5728 5728 5728 5729 5730 5731 5731 5730 5729 5730 5732
5678 5677 5676 5676 5675 5675 5679 5683 5686 5689 5691 5690 5691 5692 5692 5693 5693 5693 5694 5697 5699 5700 5702 5703 5705 5708 5710 5710 5708 5709 5709 5710 5711 5713 5715 5716 5716 5717 5717 5718 5720 5721 5721 5723 5725 5727 5728 5730 5730 5731 5730 5727 5727 5729
5668 5668 5669 5668 5668 5671 5673 5677 5679 5683 5684 5684 5685 5685 5687 5687 5688 5689 5690 5692 5695 5697 5699 5701 5704 5706 5707 5709 5711 5711 5712 5709 5712 5715 5716 5717 5719 5721 5722 5723 5722 5721 5721 5723 5722 5722 5724 5726 5727 5727 5726 5725 5726 5725
5660 5661 5662 5662 5664 5666 5669 5672 5673 5675 5678 5679 5679 5680 5681 5682 5683 5685 5687 5689 5692 5695 5696 5700 5704 5705 5704 5708 5709 5709 5711 5711 5715 5715 5718 5721 5723 5724 5722 5721 5721 5720 5722 5721 5721 5722 5723 5725 5727 5726 5725 5724 5725 5723
5653 5653 5654 5656 5659 5662 5665 5667 5669 5671 5673 5672 5674 5675 5677 5678 5679 5681 5684 5686 5689 5692 5694 5698 5702 5704 5705 5706 5708 5711 5714 5715 5716 5718 5719 5724 5724 5724 5721 5721 5721 5722 5722 5721 5721 5719 5721 5723 5724 5723 5722 5720 5719 5717
5646 5647 5649 5652 5656 5658 5661 5663 5665 5667 5668 5669 5669 5670 5672 5674 5676 5678 5682 5685 5687 5690 5691 5696 5700 5702 5705 5706 5708 5711 5714 5714 5715 5717 5720 5721 5721 5721 5721 5722 5721 5721 5722 5722 5722 5721 5721 5721 5718 5718 5716 5715 5715 5714
5641 5643 5647 5650 5653 5655 5658 5659 5661 5662 5663 5664 5664 5666 5668 5671 5673 5676 5680 5683 5686 5687 5690 5694 5698 5701 5706 5708 5709 5710 5710 5711 5716 5717 5719 5720 5721 5722 5723 5722 5722 5723 5723 5723 5722 5722 5722 5721 5719 5717 5716 5716 5715 5715
5639 5641 5644 5647 5649 5652 5653 5655 5656 5658 5659 5660 5661 5662 5665 5667 5670 5674 5678 5681 5684 5686 5690 5693 5698 5701 5704 5707 5709 5710 5712 5715 5716 5718 5717 5719 5721 5722 5722 5723 5723 5723 5722 5722 5722 5723 5722 5720 5719 5718 5717 5717 5716 5716
5637 5641 5643 5644 5646 5648 5650 5652 5653 5655 5655 5656 5658 5660 5662 5665 5667 5671 5675 5678 5681 5684 5688 5692 5696 5699 5703 5706 5706 5709 5712 5715 5716 5714 5715 5719 5721 5722 5723 5722 5721 5722 5722 5723 5723 5724 5723 5722 5721 5721 5720 5720 5719 5718
5633 5636 5639 5641 5643 5645 5647 5648 5650 5651 5653 5655 5657 5658 5660 5663 5666 5670 5672 5675 5679 5683 5687 5691 5695 5696 5699 5703 5707 5708 5711 5712 5714 5716 5718 5720 5721 5722 5721 5720 5722 5722 5722 5723 5724 5724 5724 5724 5723 5723 5722 5721 5720 5718
5630 5633 5635 5638 5640 5642 5644 5646 5648 5649 5651 5653 5655 5657 5660 5663 5666 5670 5671 5674 5678 5682 5686 5689 5693 5697 5698 5702 5706 5709 5710 5712 5714 5718 5720 5720 5721 5722 5722 5721 5721 5721 5721 5723 5723 5724 5724 5724 5724 5723 5722 5720 5719 5717
5628 5630 5632 5635 5636 5638 5640 5643 5645 5648 5649 5652 5654 5657 5660 5663 5666 5668 5670 5673 5676 5679 5683 5688 5692 5695 5698 5702 5706 5709 5711 5710 5712 5717 5719 5720 5720 5720 5719 5719 5720 5720 5721 5722 5723 5724 5724 5723 5723 5722 5720 5719 5717 5715
5625 5627 5629 5631 5633 5635 5637 5640 5643 5644 5646 5648 5651 5656 5658 5660 5664 5667 5669 5671 5674 5678 5682 5685 5689 5694 5698 5704 5707 5708 5710 5711 5712 5714 5716 5717 5718 5719 5719 5720 5720 5721 5722 5722 5723 5723 5723 5723 5722 5720 5719 5716 5714 5712
5622 5624 5625 5628 5630 5632 5635 5637 5639 5641 5644 5647 5651 5654 5658 5662 5664 5666 5668 5670 5673 5676 5680 5685 5691 5695 5698 5701 5703 5705 5707 5709 5711 5712 5714 5715 5717 5718 5719 5720 5720 5721 5722 5723 5723 5723 5722 5721 5720 5718 5716 5714 5712 5710
5620 5622 5624 5626 5627 5629 5632 5633 5636 5639 5642 5646 5649 5653 5657 5660 5663 5665 5668 5671 5674 5677 5682 5687 5692 5696 5699 5702 5703 5705 5707 5708 5709 5712 5712 5714 5715 5716 5718 5719 5720 5721 5722 5722 5722 5722 5721 5719 5718 5717 5715 5712 5710 5708
5619 5620 5621 5623 5625 5627 5629 5631 5634 5636 5640 5644 5648 5653 5657 5660 5663 5666 5669 5672 5675 5679 5684 5687 5692 5695 5698 5700 5702 5704 5708 5708 5708 5710 5711 5712 5713 5715 5717 5719 5720 5720 5721 5721 5721 5720 5719 5718 5716 5714 5711 5709 5707 5705
5618 5619 5620 5621 5623 5625 5628 5630 5633 5635 5639 5643 5647 5652 5655 5659 5663 5666 5669 5673 5676 5680 5684 5689 5691 5693 5696 5698 5700 5703 5705 5706 5707 5709 5710 5711 5713 5715 5717 5718 5719 5720 5720 5720 5719 5718 5717 5715 5714 5712 5710 5707 5705 5703
Wind_Speed
32 34 38 39 40 41 42 43 42 40 40 39 39 38 36 36 35 36 40 41 40 37 33 40 44 46 42 42 43 42 44 40 42 45 45 42 43 43 43 40 36 39 41 50 54 57 60 46 35 33 32 35 37 34
39 41 43 44 46 46 46 46 45 44 42 41 40 41 40 38 38 37 38 42 43 42 40 42 44 46 47 45 46 48 47 44 44 46 45 41 42 40 33 36 30 37 39 48 55 61 51 44 40 34 33 35 35 36
42 44 46 46 47 48 47 47 48 47 44 44 42 42 41 39 39 38 39 41 45 46 45 46 46 49 50 51 50 47 38 42 43 43 40 40 39 38 36 35 32 35 41 49 56 57 59 54 44 31 36 33 37 36
44 45 47 46 46 47 48 48 48 47 45 44 44 43 41 38 38 40 43 44 48 49 51 48 50 54 57 55 52 50 45 45 37 34 34 31 32 34 36 36 41 37 47 51 54 58 57 35 37 39 43 40 43 37
47 48 50 49 47 46 46 46 47 46 45 42 43 43 41 39 40 43 43 46 49 53 56 55 53 49 45 39 36 33 26 31 33 36 34 33 33 38 39 39 40 36 54 50 49 47 47 43 36 39 44 54 52 44
52 53 53 51 48 46 45 46 46 45 43 40 40 42 41 40 42 43 43 45 51 55 50 36 30 22 17 13 14 18 25 22 22 22 22 24 29 31 33 28 23 44 43 50 52 52 53 47 48 55 52 48 49 48
56 56 53 52 49 46 45 44 44 42 41 40 39 39 39 40 41 42 43 47 46 36 31 23 18 12 8 9 6 10 9 14 15 21 14 18 19 24 22 25 39 37 42 52 55 53 56 52 51 54 57 47 53 48
58 57 52 51 48 45 44 43 42 39 38 35 40 39 37 37 36 39 42 36 26 24 24 22 18 12 7 7 6 7 5 7 10 10 18 21 18 13 12 27 39 19 22 47 53 54 57 56 33 50 48 21 55 44
56 54 52 49 46 44 43 42 39 36 33 36 38 36 35 33 32 35 36 21 22 20 23 18 8 11 9 6 6 14 15 13 5 4 10 8 3 11 24 27 34 38 26 52 51 49 56 61 56 54 16 12 36 33
51 50 48 45 44 42 41 40 33 34 32 34 35 32 29 29 29 30 26 16 16 19 21 11 7 6 7 18 22 15 8 6 6 18 4 5 12 14 6 12 34 32 22 25 49 56 65 13 34 9 15 11 32 32
48 46 43 42 43 42 40 38 31 31 33 32 32 30 26 26 26 27 21 15 13 13 16 7 7 15 16 16 15 7 4 3 4 7 8 5 10 18 11 12 23 13 12 13 6 56 20 29 8 4 10 16 23 26
49 48 45 42 42 40 40 36 33 30 32 30 31 28 24 24 23 24 14 12 11 11 13 12 13 12 15 10 14 2 9 4 6 4 3 12 11 5 9 15 18 19 9 11 7 8 8 8 8 12 15 17 20 24
47 43 40 40 38 39 41 39 30 32 29 26 27 24 22 21 21 20 12 9 11 11 11 12 7 8 7 5 3 3 10 6 1 6 14 13 14 11 9 6 3 3 5 4 4 7 10 10 12 15 17 21 24 26
45 44 44 44 45 42 41 38 31 31 26 25 24 21 20 20 19 17 12 10 10 11 9 8 3 6 2 4 2 3 9 10 3 7 10 8 12 13 4 9 10 9 9 12 13 14 17 21 20 19 21 22 23 24
35 33 34 34 38 41 37 31 27 29 24 24 20 18 19 18 17 14 11 9 10 9 8 4 7 5 1 4 5 5 6 12 14 9 6 13 15 17 15 16 19 21 21 20 20 14 14 15 19 20 21 20 22 21
38 33 32 34 29 33 34 31 27 29 22 21 18 18 18 17 15 13 13 14 12 10 7 5 11 7 6 6 5 6 2 1 7 2 5 11 7 9 8 5 5 7 11 12 13 14 15 17 18 18 20 22 23 23
36 34 33 34 36 35 36 28 24 21 19 17 19 17 17 16 15 12 15 15 12 11 7 6 8 8 5 2 3 6 4 10 14 9 7 8 8 5 4 4 6 7 10 11 12 14 16 15 19 20 23 26 22 24
30 27 26 30 29 30 29 22 21 17 15 19 16 17 16 16 13 12 15 13 12 12 10 10 11 12 9 7 8 11 6 13 11 12 11 10 9 4 2 5 7 8 9 9 12 15 13 11 15 11 19 22 26 19
28 27 28 27 27 21 14 14 18 14 15 17 15 15 15 14 11 12 16 14 15 13 12 15 17 7 8 1 4 7 13 9 15 12 11 7 3 3 4 6 8 9 10 11 13 13 9 8 11 13 12 14 16 15
24 25 21 15 14 8 14 15 12 13 14 14 14 15 13 12 10 13 17 14 16 13 11 13 12 10 10 13 6 6 4 4 8 11 7 5 2 4 4 4 6 9 13 9 9 9 9 11 10 12 13 13 11 11
22 21 17 14 21 21 16 10 13 13 13 14 14 14 12 12 10 15 17 15 15 14 14 13 12 10 8 10 10 8 8 7 0 5 3 2 1 7 7 3 3 1 4 6 4 6 10 10 8 5 7 9 12 13
21 20 15 17 13 8 10 10 11 12 13 13 13 13 13 12 10 16 19 16 15 14 12 10 14 16 1 8 9 7 6 4 7 4 1 3 5 7 4 2 2 7 4 2 2 4 5 6 11 12 12 10 7 8
14 17 17 14 12 11 14 12 12 11 11 11 11 12 13 14 12 18 19 16 14 15 14 11 15 22 12 11 7 5 5 5 7 4 0 5 11 8 7 3 1 2 2 4 5 1 5 6 6 4 3 4 4 4
20 16 12 13 12 12 12 12 11 10 10 10 10 12 13 13 13 18 19 14 12 12 16 17 16 20 17 11 10 9 8 8 8 9 4 6 3 2 2 3 2 1 5 4 4 5 7 7 6 8 7 6 6 7
10 11 15 11 11 11 11 12 11 9 8 8 11 11 10 12 15 18 16 15 14 16 23 23 17 17 18 17 13 10 8 10 8 2 2 5 9 7 3 4 4 1 2 3 3 3 8 11 11 11 10 9 8 8
18 16 12 10 11 10 9 9 8 8 8 10 11 11 11 14 16 17 17 16 16 19 25 24 20 15 16 18 17 13 6 7 5 4 6 7 10 8 9 7 2 3 4 5 5 3 2 2 4 5 6 7 9 10
16 12 14 13 10 9 10 10 8 8 10 13 13 12 13 17 17 16 14 17 21 16 23 29 24 19 18 18 16 9 9 10 9 8 8 8 6 4 4 3 3 4 5 5 5 5 2 2 5 7 9 10 11 11
13 14 17 15 12 11 13 10 8 10 13 14 13 11 11 14 17 19 12 15 17 15 18 25 25 21 17 14 9 15 14 10 9 10 7 5 3 2 2 2 3 4 4 3 3 2 2 4 7 9 10 11 11 13
12 13 14 13 11 11 11 10 12 15 17 18 16 17 17 18 16 13 14 16 15 16 19 21 24 22 18 14 12 12 11 13 14 11 10 6 4 3 3 4 4 5 5 4 2 3 5 7 9 9 10 11 12 12
8 9 10 11 12 12 12 12 16 18 18 18 19 21 17 12 13 10 14 18 16 17 22 25 25 21 16 12 11 10 11 11 12 9 8 10 8 6 6 5 5 6 5 3 3 5 6 8 9 10 10 11 12 13
8 9 10 10 11 12 12 14 16 17 17 19 25 25 20 15 16 11 15 18 19 24 25 24 22 16 14 13 12 11 11 9 9 8 8 8 8 7 6 6 6 5 3 2 3 5 7 8 8 7 9 10 10 12
7 8 9 10 11 12 13 14 15 17 18 21 25 25 19 15 15 17 18 18 21 23 24 20 17 18 17 13 10 8 8 10 11 10 8 6 12 8 9 9 7 5 3 2 4 7 8 7 8 10 11 12 12 16
6 6 8 10 12 13 14 13 13 14 18 21 24 25 19 18 18 20 22 21 21 22 21 19 19 19 17 12 10 9 11 10 8 8 9 8 13 13 10 7 5 3 1 3 6 6 8 10 10 9 10 11 14 16
Wind_Direction
308 311 312 314 315 316 319 321 323 324 324 325 321 317 311 306 302 300 297 297 298 295 295 291 291 288 284 282 281 280 278 278 275 276 275 270 263 263 259 250 248 239 231 234 227 219 230 235 226 209 212 222 226 231
303 305 305 307 309 311 312 313 315 318 317 319 321 317 311 306 303 300 300 300 300 299 298 293 288 284 283 282 281 278 279 279 276 270 266 266 261 263 251 246 256 255 227 230 215 216 224 225 213 206 219 222 227 228
304 304 305 305 307 307 308 310 311 314 314 314 317 316 312 307 304 302 303 302 303 300 300 295 290 284 283 279 276 276 272 269 271 272 270 268 262 253 244 250 258 245 230 225 213 216 214 214 205 229 208 216 223 219
304 304 304 305 304 305 307 308 307 309 311 311 314 314 312 309 306 307 310 309 305 304 305 301 295 287 281 278 273 271 269 268 263 262 260 257 247 248 249 257 253 247 217 212 215 207 213 211 212 225 217 214 227 218
300 301 302 303 303 304 304 304 305 306 308 309 310 312 311 310 310 313 314 312 310 309 306 303 297 289 287 279 274 265 260 261 257 252 250 252 247 251 252 255 252 235 200 207 202 195 199 198 211 221 227 223 222 227
298 298 299 300 300 300 301 301 303 304 304 306 309 310 310 311 313 315 316 316 315 314 313 316 306 296 288 285 280 252 281 271 254 268 260 254 248 255 254 245 237 224 191 188 177 185 188 193 210 227 221 230 229 224
296 295 295 297 298 299 300 301 299 301 305 306 312 311 311 313 317 319 322 322 324 327 332 336 328 307 282 294 276 283 276 303 242 255 248 235 248 255 252 232 197 171 191 186 188 194 198 199 207 220 223 216 215 213
292 293 290 292 292 295 296 297 296 299 302 305 310 308 310 314 320 322 323 330 332 345 348 354 347 329 317 325 307 290 287 329 318 273 243 235 220 249 225 192 194 213 187 201 198 203 207 213 212 215 225 149 208 207
290 289 289 288 290 291 293 294 295 296 297 302 304 309 310 317 321 323 327 323 335 340 349 344 341 322 309 9 22 344 335 320 311 153 163 133 239 167 172 196 206 203 206 206 205 203 215 216 228 235 202 183 210 229
288 287 285 286 287 287 289 289 288 291 291 294 302 305 310 316 319 321 322 309 329 330 342 333 352 1 349 327 337 359 22 84 82 91 44 346 158 174 171 165 199 221 211 242 217 210 215 201 202 82 99 199 210 219
287 285 282 286 285 285 284 282 281 288 282 290 301 304 309 314 317 319 317 296 322 323 346 314 300 328 338 360 11 18 76 176 52 126 154 211 128 117 85 47 68 97 201 65 126 209 187 199 120 236 277 236 228 236
285 283 282 283 282 280 280 274 280 279 276 292 300 301 308 312 314 321 310 286 305 321 344 331 303 323 337 339 0 120 100 164 138 164 306 198 210 22 49 38 46 51 62 52 39 32 74 148 186 233 254 261 259 258
282 282 279 278 276 277 273 276 276 272 273 291 294 297 304 305 307 319 295 289 297 319 335 331 320 311 343 22 89 165 110 128 165 221 191 203 221 245 46 63 44 328 290 241 216 265 273 251 233 241 245 246 243 247
282 281 279 275 276 270 272 275 263 269 271 286 291 297 299 297 299 310 288 267 279 304 325 332 296 340 69 323 3 190 216 213 219 206 245 243 247 243 262 241 235 237 244 255 263 281 276 273 272 258 252 263 273 274
284 284 283 281 276 269 271 262 262 266 267 281 287 288 290 289 294 301 269 245 256 287 308 288 207 215 16 1 337 118 154 226 243 224 213 219 241 241 243 264 250 258 263 257 275 276 270 263 256 254 251 251 258 259
279 280 283 284 287 284 262 253 252 260 268 280 283 281 286 281 286 283 254 234 252 260 297 258 208 228 282 298 322 225 251 213 187 208 41 194 187 158 176 181 207 239 246 251 256 260 261 263 262 258 256 259 262 264
275 276 281 281 289 278 262 258 261 252 269 277 272 282 277 275 281 274 252 231 242 232 249 213 181 226 262 330 26 268 323 72 174 164 193 174 170 165 206 220 241 252 260 263 268 274 276 272 276 284 282 264 266 272
272 281 281 291 272 265 267 256 244 250 271 267 271 272 270 269 275 260 244 226 230 225 224 210 194 203 223 310 300 194 89 114 128 152 171 160 144 149 227 259 267 275 280 289 292 279 280 290 303 273 267 284 278 276
269 275 279 294 266 256 256 264 246 255 258 262 266 263 263 263 269 250 218 220 218 216 217 202 194 203 248 322 98 216 248 211 169 172 176 146 105 13 309 304 300 289 286 271 290 288 282 288 299 317 309 272 265 265
272 279 277 273 273 246 246 253 246 259 252 260 260 257 256 252 255 228 207 219 213 208 218 207 197 223 248 236 257 267 282 68 115 139 137 112 78 336 338 334 323 297 274 273 270 256 252 258 274 275 266 270 274 274
277 282 282 242 228 223 227 239 246 252 258 257 252 252 245 240 237 210 204 208 207 208 213 204 207 205 247 246 232 234 242 287 68 164 149 86 343 347 19 46 58 231 267 260 316 277 270 287 278 276 292 293 300 314
272 260 222 189 195 203 250 240 248 251 253 255 249 247 232 224 221 204 197 202 207 209 201 194 201 197 233 178 194 212 219 221 205 185 189 327 319 337 27 4 293 297 285 167 172 283 293 298 302 306 303 308 321 329
215 179 181 195 202 220 245 243 247 252 252 248 247 236 223 218 216 202 197 200 206 211 205 191 196 194 186 163 170 184 165 186 170 199 104 86 122 103 67 52 227 211 221 166 142 220 294 330 345 340 13 14 358 344
191 180 201 220 223 236 235 243 254 253 247 246 232 215 214 217 212 198 197 199 195 198 192 178 178 176 182 181 167 155 152 137 185 204 109 131 157 68 44 49 54 107 138 131 98 47 23 34 54 53 56 60 59 74
205 209 208 209 229 228 238 259 250 237 237 227 212 208 207 206 197 192 186 191 188 180 170 168 171 174 179 174 168 177 167 177 196 65 335 185 219 221 232 62 43 95 128 130 147 63 67 77 73 75 70 49 33 22
215 211 212 217 219 238 245 226 224 226 216 206 203 202 198 194 189 183 183 186 181 173 171 169 171 171 182 186 190 197 190 182 172 146 163 184 222 245 341 207 287 188 205 186 200 195 89 50 32 29 14 352 343 340
204 204 209 211 232 243 238 228 222 214 208 200 198 201 196 189 183 180 187 191 175 164 182 178 179 182 194 195 198 194 179 192 191 156 174 198 214 246 261 253 200 201 189 192 225 219 229 334 349 340 333 333 335 336
212 218 213 221 244 249 227 219 213 203 199 196 195 186 178 190 192 192 188 205 196 195 178 184 186 186 202 194 170 183 182 188 198 172 176 176 205 275 313 254 241 199 183 189 184 197 242 306 323 324 325 329 333 334
208 215 231 237 224 206 209 209 201 203 203 193 183 182 181 186 194 203 190 187 192 192 186 182 184 190 199 195 200 213 205 195 207 221 220 236 263 267 272 240 210 175 158 151 185 252 291 309 313 320 327 329 335 341
197 194 193 205 213 216 217 213 206 205 204 198 185 180 171 177 195 195 196 189 188 185 177 170 174 189 194 203 203 200 193 199 212 222 227 247 246 237 227 210 187 176 177 206 269 301 316 316 318 325 336 339 336 338
201 210 215 220 220 217 211 210 206 202 199 193 187 180 175 176 178 181 178 179 175 170 168 175 179 187 189 179 187 198 200 207 213 207 218 211 219 227 204 192 192 195 212 260 292 308 318 318 323 329 324 329 344 345
207 218 218 213 209 200 197 200 203 206 199 190 186 189 195 182 179 174 171 167 173 174 177 182 180 182 180 184 200 209 189 194 206 212 199 218 194 175 194 195 198 210 223 266 319 329 325 323 314 326 335 340 339 342
197 204 204 202 201 198 199 197 195 193 190 184 184 187 185 183 178 170 168 168 173 181 172 169 181 185 188 197 197 186 184 187 195 178 196 199 209 203 181 188 195 190 242 339 334 326 314 320 335 349 348 347 346 348